GW4109 Weather Reports


time (UTC)temp
C
wind
direction
speed
KPH
gust
KPH
rain 1hr
cm
rain 24hr
cm
rain mn
cm
humidity
%
barometer
mb
20260505200245 20 312 8.0 20.9 0.00 0.00 0.00 37 1017.0
20260505195740 21 342 4.8 20.9 0.00 0.00 0.00 36 1017.1
20260505195239 20 253 11.3 25.7 0.00 0.00 0.00 37 1017.1
20260505194735 21 312 19.3 33.8 0.00 0.00 0.00 37 1017.2
20260505194232 20 309 16.1 27.4 0.00 0.00 0.00 40 1017.3
20260505193728 20 302 9.7 16.1 0.00 0.00 0.00 40 1017.4
20260505193225 20 312 20.9 24.1 0.00 0.00 0.00 40 1017.4
20260505192724 20 248 8.0 24.1 0.00 0.00 0.00 37 1017.4
20260505192221 20 310 9.7 20.9 0.00 0.00 0.00 39 1017.6
20260505191719 20 35 3.2 14.5 0.00 0.00 0.00 40 1017.2
20260505191218 19 68 4.8 12.9 0.00 0.00 0.00 41 1017.7
20260505190713 20 257 12.9 14.5 0.00 0.00 0.00 41 1017.7
20260505190213 20 349 3.2 16.1 0.00 0.00 0.00 40 1017.6
20260505185710 18 56 1.6 20.9 0.00 0.00 0.00 42 1017.6
20260505185206 19 236 6.4 25.7 0.00 0.00 0.00 42 1017.4
20260505184702 20 146 3.2 9.7 0.00 0.00 0.00 41 1017.5
20260505184200 20 303 4.8 8.0 0.00 0.00 0.00 41 1017.6
20260505183656 20 359 3.2 14.5 0.00 0.00 0.00 41 1017.7
20260505183154 20 311 8.0 16.1 0.00 0.00 0.00 41 1017.5
20260505182650 19 317 14.5 22.5 0.00 0.00 0.00 43 1017.6
20260505182148 19 357 6.4 29.0 0.00 0.00 0.00 43 1017.4
20260505181643 18 321 12.9 27.4 0.00 0.00 0.00 43 1017.5
20260505181141 19 323 17.7 19.3 0.00 0.00 0.00 42 1017.4
20260505180637 19 322 20.9 22.5 0.00 0.00 0.00 42 1017.2
20260505180135 20 55 4.8 14.5 0.00 0.00 0.00 42 1017.2
20260505175631 19 23 4.8 20.9 0.00 0.00 0.00 42 1017.0
20260505175127 20 357 4.8 12.9 0.00 0.00 0.00 42 1017.1
20260505174624 20 339 3.2 8.0 0.00 0.00 0.00 42 1017.1
20260505174120 18 250 4.8 29.0 0.00 0.00 0.00 44 1017.0
20260505173617 20 356 8.0 11.3 0.00 0.00 0.00 43 1017.0
20260505173114 20 44 4.8 8.0 0.00 0.00 0.00 43 1016.8
20260505172611 20 345 9.7 17.7 0.00 0.00 0.00 43 1016.7
20260505172108 20 53 3.2 9.7 0.00 0.00 0.00 43 1016.8
20260505171602 20 345 8.0 11.3 0.00 0.00 0.00 44 1016.6
20260505171100 20 19 3.2 17.7 0.00 0.00 0.00 43 1016.6
20260505170556 19 337 6.4 11.3 0.00 0.00 0.00 45 1016.5
20260505170053 19 0 6.4 12.9 0.00 0.00 0.00 45 1016.6
20260505165548 19 343 4.8 14.5 0.00 0.00 0.00 45 1016.5
20260505165044 20 329 11.3 14.5 0.00 0.00 0.00 45 1016.6
20260505164540 20 4 4.8 12.9 0.00 0.00 0.00 44 1016.6
20260505164038 20 17 6.4 12.9 0.00 0.00 0.00 44 1016.3
20260505163537 20 24 6.4 11.3 0.00 0.00 0.00 43 1016.3
20260505163033 20 50 6.4 9.7 0.00 0.00 0.00 43 1016.2
20260505162526 20 125 0.0 4.8 0.00 0.00 0.00 41 1016.5
20260505162023 20 66 3.2 11.3 0.00 0.00 0.00 44 1016.2
20260505161520 20 348 4.8 12.9 0.00 0.00 0.00 45 1016.1
20260505161017 20 300 0.0 6.4 0.00 0.00 0.00 43 1016.3
20260505160515 19 114 0.0 9.7 0.00 0.00 0.00 44 1016.3
20260505152951 17 287 3.2 11.3 0.00 0.00 0.00 48 1016.0
20260505152449 18 262 6.4 12.9 0.00 0.00 0.00 47 1016.1
20260505151943 18 268 11.3 14.5 0.00 0.00 0.00 47 1015.9
20260505151439 18 216 4.8 6.4 0.00 0.00 0.00 45 1015.9
20260505150937 18 212 0.0 3.2 0.00 0.00 0.00 47 1015.7
20260505150433 18 266 4.8 11.3 0.00 0.00 0.00 46 1015.9
20260505140403 18 44 0.0 3.2 0.00 0.00 0.00 49 1015.6
20260505124817 13 156 1.6 3.2 0.00 0.00 0.00 62 1015.0
20260505124314 13 177 1.6 4.8 0.00 0.00 0.00 62 1015.0
20260505123810 13 153 3.2 3.2 0.00 0.00 0.00 62 1014.8
20260505123307 13 165 4.8 4.8 0.00 0.00 0.00 64 1014.9
20260505122802 12 134 3.2 6.4 0.00 0.00 0.00 65 1014.8
20260505122300 12 322 0.0 1.6 0.00 0.00 0.00 64 1014.8
20260505121756 12 100 0.0 1.6 0.00 0.00 0.00 64 1014.7
20260505121253 12 118 0.0 3.2 0.00 0.00 0.00 63 1014.8
20260505120750 13 254 1.6 6.4 0.00 0.00 0.00 62 1014.8
20260505120246 13 88 4.8 8.0 0.00 0.00 0.00 61 1014.8
20260505115744 13 92 3.2 8.0 0.00 0.00 0.00 61 1014.8
20260505115242 13 87 4.8 8.0 0.00 0.00 0.00 61 1014.8
20260505114740 13 98 4.8 6.4 0.00 0.00 0.00 61 1015.0
20260505114236 13 143 0.0 4.8 0.00 0.00 0.00 62 1015.0
20260505113733 13 53 3.2 4.8 0.00 0.00 0.00 61 1015.2
20260505113230 13 79 1.6 4.8 0.00 0.00 0.00 61 1015.1
20260505112726 15 148 0.0 3.2 0.00 0.00 0.00 60 1015.5
20260505112224 15 89 0.0 3.2 0.00 0.00 0.00 59 1015.1
20260505111723 15 115 1.6 3.2 0.00 0.00 0.00 59 1015.1
20260505111219 15 191 3.2 4.8 0.00 0.00 0.00 58 1015.3
20260505110715 15 237 3.2 4.8 0.00 0.00 0.00 58 1015.2
20260505110213 15 230 3.2 8.0 0.00 0.00 0.00 57 1015.4
20260505102148 15 93 3.2 4.8 0.00 0.00 0.00 57 1015.3
20260505101647 15 99 4.8 9.7 0.00 0.00 0.00 56 1015.2
20260505101143 15 87 9.7 9.7 0.00 0.00 0.00 56 1015.3
20260505100639 15 100 4.8 8.0 0.00 0.00 0.00 56 1015.2
20260505100136 15 93 3.2 6.4 0.00 0.00 0.00 57 1015.5
20260505095632 15 89 8.0 9.7 0.00 0.00 0.00 56 1015.2
20260505095129 15 92 9.7 9.7 0.00 0.00 0.00 55 1015.4
20260505094625 15 52 3.2 4.8 0.00 0.00 0.00 54 1015.4
20260505094122 15 231 8.0 8.0 0.00 0.00 0.00 53 1015.3
20260505093618 15 217 3.2 6.4 0.00 0.00 0.00 54 1015.3
20260505093115 15 252 4.8 4.8 0.00 0.00 0.00 54 1015.4
20260505092612 15 271 3.2 8.0 0.00 0.00 0.00 53 1015.2
20260505092111 16 348 4.8 9.7 0.00 0.00 0.00 52 1015.4
20260505091607 16 314 3.2 6.4 0.00 0.00 0.00 52 1015.4
20260505091106 16 318 9.7 9.7 0.00 0.00 0.00 52 1015.8
20260505090603 16 327 4.8 8.0 0.00 0.00 0.00 53 1015.8
20260505090101 16 256 1.6 9.7 0.00 0.00 0.00 52 1015.9
20260505085558 16 275 4.8 12.9 0.00 0.00 0.00 52 1015.8
20260505085057 15 236 6.4 6.4 0.00 0.00 0.00 53 1016.1
20260505084554 15 356 3.2 6.4 0.00 0.00 0.00 53 1016.0
20260505084052 16 275 0.0 4.8 0.00 0.00 0.00 52 1016.1
20260505083549 16 328 6.4 12.9 0.00 0.00 0.00 51 1016.1
20260505083046 16 311 4.8 9.7 0.00 0.00 0.00 51 1016.2
20260505082541 16 328 9.7 14.5 0.00 0.00 0.00 51 1016.3
20260505082039 16 281 8.0 25.7 0.00 0.00 0.00 50 1016.5
20260505081535 16 317 3.2 14.5 0.00 0.00 0.00 50 1016.5
20260505081032 16 10 3.2 8.0 0.00 0.00 0.00 51 1016.6
20260505080528 16 248 6.4 16.1 0.00 0.00 0.00 52 1016.5
20260505080025 16 340 8.0 9.7 0.00 0.00 0.00 52 1016.5
20260505075521 16 276 4.8 9.7 0.00 0.00 0.00 51 1016.6
20260505075018 16 295 4.8 25.7 0.00 0.00 0.00 52 1016.7
20260505074515 16 336 1.6 29.0 0.00 0.00 0.00 52 1016.7
20260505074012 16 258 4.8 12.9 0.00 0.00 0.00 53 1016.6
20260505073510 16 256 6.4 9.7 0.00 0.00 0.00 53 1016.6
20260505073008 16 332 4.8 6.4 0.00 0.00 0.00 53 1016.7
20260505072503 16 265 9.7 19.3 0.00 0.00 0.00 52 1016.6
20260505071959 16 248 6.4 8.0 0.00 0.00 0.00 52 1016.6
20260505071455 16 225 3.2 4.8 0.00 0.00 0.00 52 1016.7
20260505070953 16 354 6.4 8.0 0.00 0.00 0.00 52 1016.6
20260505070450 16 329 9.7 9.7 0.00 0.00 0.00 52 1016.6
20260505065946 16 273 3.2 9.7 0.00 0.00 0.00 52 1016.3
20260505065442 16 322 6.4 9.7 0.00 0.00 0.00 52 1016.6
20260505064940 16 202 3.2 6.4 0.00 0.00 0.00 53 1016.7
20260505064436 16 244 3.2 11.3 0.00 0.00 0.00 52 1016.8
20260505063934 16 240 17.7 24.1 0.00 0.00 0.00 52 1016.5
20260505063431 16 274 6.4 17.7 0.00 0.00 0.00 52 1016.5
20260505062927 16 263 9.7 12.9 0.00 0.00 0.00 52 1016.8
20260505062425 16 262 6.4 17.7 0.00 0.00 0.00 52 1016.8
20260505061921 16 232 14.5 17.7 0.00 0.00 0.00 52 1016.9
20260505061419 16 261 3.2 8.0 0.00 0.00 0.00 53 1016.8
20260505060917 16 232 11.3 16.1 0.00 0.00 0.00 53 1017.0
20260505060413 16 228 4.8 9.7 0.00 0.00 0.00 51 1016.8
20260505055910 16 338 16.1 19.3 0.00 0.00 0.00 50 1016.7
20260505055406 16 278 4.8 22.5 0.00 0.00 0.00 50 1016.8
20260505054903 16 256 14.5 22.5 0.00 0.00 0.00 51 1016.7
20260505054400 16 268 8.0 17.7 0.00 0.00 0.00 51 1017.0
20260505053858 16 321 8.0 19.3 0.00 0.00 0.00 50 1017.2
20260505053355 16 250 22.5 30.6 0.00 0.00 0.00 50 1017.3
20260505052852 17 276 11.3 38.6 0.00 0.00 0.00 49 1017.1
20260505052348 17 228 24.1 35.4 0.00 0.00 0.00 48 1017.0
20260505051846 17 231 20.9 32.2 0.00 0.00 0.00 48 1017.0
20260505051343 17 252 11.3 12.9 0.00 0.00 0.00 47 1017.1
20260505050842 17 240 14.5 25.7 0.00 0.00 0.00 46 1017.0
20260505050340 17 241 17.7 20.9 0.00 0.00 0.00 46 1016.8
20260505041306 17 249 14.5 24.1 0.00 0.00 0.00 47 1017.3
20260505040804 17 297 9.7 22.5 0.00 0.00 0.00 48 1017.1
20260505040301 17 250 14.5 25.7 0.00 0.00 0.00 47 1017.2
20260505035758 17 301 11.3 24.1 0.00 0.00 0.00 48 1017.0
20260505035253 17 301 8.0 29.0 0.00 0.00 0.00 47 1017.1
20260505034751 17 297 8.0 29.0 0.00 0.00 0.00 46 1017.1
20260505034247 17 313 12.9 35.4 0.00 0.00 0.00 46 1016.9
20260505033744 17 300 9.7 25.7 0.00 0.00 0.00 47 1016.8
20260505033242 17 249 11.3 25.7 0.00 0.00 0.00 46 1016.7
20260505032740 17 337 12.9 20.9 0.00 0.00 0.00 46 1016.9
20260505032235 17 104 0.0 16.1 0.00 0.00 0.00 45 1016.8
20260505031733 17 351 6.4 19.3 0.00 0.00 0.00 45 1016.6
20260505031229 17 240 6.4 14.5 0.00 0.00 0.00 46 1016.3
20260505030726 17 320 3.2 14.5 0.00 0.00 0.00 45 1016.5
20260505030222 17 281 8.0 19.3 0.00 0.00 0.00 45 1016.5
20260505025718 18 310 9.7 22.5 0.00 0.00 0.00 45 1016.2
20260505025217 18 319 3.2 16.1 0.00 0.00 0.00 44 1016.5
20260505024714 18 0 6.4 17.7 0.00 0.00 0.00 44 1016.1
20260505024211 18 321 16.1 22.5 0.00 0.00 0.00 44 1016.0
20260505023708 18 338 8.0 17.7 0.00 0.00 0.00 44 1016.0
20260505023206 18 255 17.7 30.6 0.00 0.00 0.00 43 1016.0
20260505022703 18 302 12.9 22.5 0.00 0.00 0.00 43 1016.2
20260505022200 18 256 4.8 32.2 0.00 0.00 0.00 42 1015.9
20260505021657 18 239 11.3 30.6 0.00 0.00 0.00 43 1016.0
20260505021153 18 325 12.9 20.9 0.00 0.00 0.00 43 1015.8
20260505020649 18 328 20.9 38.6 0.00 0.00 0.00 43 1015.8
20260505020145 18 342 17.7 29.0 0.00 0.00 0.00 43 1015.7
20260505015643 18 315 17.7 24.1 0.00 0.00 0.00 42 1015.7
20260505015139 18 254 6.4 20.9 0.00 0.00 0.00 42 1015.8
20260505014636 19 340 8.0 9.7 0.00 0.00 0.00 41 1016.0
20260505014133 19 201 4.8 43.5 0.00 0.00 0.00 41 1016.3
20260505013630 19 295 14.5 17.7 0.00 0.00 0.00 42 1015.9
20260505013127 19 337 22.5 24.1 0.00 0.00 0.00 41 1015.8
20260505012625 20 320 17.7 24.1 0.00 0.00 0.00 40 1015.8
20260505012122 20 10 3.2 8.0 0.00 0.00 0.00 41 1015.8
20260505011617 20 254 12.9 29.0 0.00 0.00 0.00 40 1016.0
20260505011115 20 351 11.3 16.1 0.00 0.00 0.00 38 1015.7
20260505010610 20 10 8.0 29.0 0.00 0.00 0.00 39 1015.9
20260505010107 21 338 11.3 22.5 0.00 0.00 0.00 39 1015.8
20260505005603 20 236 9.7 17.7 0.00 0.00 0.00 39 1016.0
20260505005101 21 278 9.7 24.1 0.00 0.00 0.00 38 1016.0
20260505004557 21 319 14.5 20.9 0.00 0.00 0.00 38 1015.8
20260505004054 21 219 9.7 12.9 0.00 0.00 0.00 36 1016.0
20260505003552 21 232 16.1 30.6 0.00 0.00 0.00 37 1015.8
20260505003049 21 292 6.4 14.5 0.00 0.00 0.00 35 1015.8
20260505002543 21 321 11.3 27.4 0.00 0.00 0.00 35 1015.9
20260505002043 21 304 12.9 29.0 0.00 0.00 0.00 35 1015.8
20260505001540 21 333 9.7 11.3 0.00 0.00 0.00 35 1015.7
20260505001037 21 298 19.3 32.2 0.00 0.00 0.00 35 1015.6
20260505000534 21 238 3.2 25.7 0.00 0.00 0.00 34 1015.7
20260505000032 22 276 11.3 20.9 0.00 0.00 0.00 35 1015.6
20260504235528 21 273 6.4 20.9 0.00 0.00 0.00 33 1015.4
20260504235025 21 263 9.7 33.8 0.00 0.00 0.00 34 1015.5
20260504234522 22 251 19.3 32.2 0.00 0.00 0.00 34 1015.4
20260504234019 22 247 19.3 27.4 0.00 0.00 0.00 33 1015.4
20260504233514 21 260 14.5 22.5 0.00 0.00 0.00 34 1015.1
20260504233011 22 249 9.7 11.3 0.00 0.00 0.00 33 1015.2
20260504232508 22 237 27.4 37.0 0.00 0.00 0.00 33 1015.4
20260504232006 23 312 9.7 22.5 0.00 0.00 0.00 32 1015.2
20260504231502 22 295 16.1 29.0 0.00 0.00 0.00 33 1015.4
20260504230958 22 259 17.7 27.4 0.00 0.00 0.00 32 1015.2
20260504230455 23 244 24.1 33.8 0.00 0.00 0.00 32 1015.3
20260504225954 22 268 11.3 29.0 0.00 0.00 0.00 33 1015.4
20260504225450 22 250 14.5 35.4 0.00 0.00 0.00 33 1015.3
20260504224947 22 277 9.7 30.6 0.00 0.00 0.00 33 1015.3
20260504224444 22 307 16.1 29.0 0.00 0.00 0.00 33 1015.1
20260504223941 23 336 11.3 17.7 0.00 0.00 0.00 32 1015.2
20260504223437 23 240 24.1 29.0 0.00 0.00 0.00 31 1015.5
20260504222933 22 328 14.5 27.4 0.00 0.00 0.00 32 1015.3
20260504222431 22 303 9.7 37.0 0.00 0.00 0.00 32 1015.6
20260504221928 22 278 20.9 35.4 0.00 0.00 0.00 33 1015.6
20260504221425 23 273 9.7 30.6 0.00 0.00 0.00 31 1015.5
20260504220922 23 294 8.0 22.5 0.00 0.00 0.00 32 1015.6
20260504220419 23 247 16.1 32.2 0.00 0.00 0.00 31 1015.3
20260504215916 24 239 20.9 24.1 0.00 0.00 0.00 31 1015.6
20260504215413 23 291 9.7 24.1 0.00 0.00 0.00 32 1015.5
20260504214909 23 315 12.9 25.7 0.00 0.00 0.00 31 1015.6
20260504214405 23 252 14.5 20.9 0.00 0.00 0.00 31 1015.6
20260504213902 24 291 9.7 25.7 0.00 0.00 0.00 30 1015.8
20260504213358 23 327 8.0 9.7 0.00 0.00 0.00 31 1015.9
20260504212855 22 252 9.7 22.5 0.00 0.00 0.00 32 1015.9
20260504212351 23 345 11.3 22.5 0.00 0.00 0.00 31 1015.8
20260504211849 22 312 12.9 29.0 0.00 0.00 0.00 32 1016.0
20260504211345 23 292 3.2 9.7 0.00 0.00 0.00 31 1015.9
20260504210843 22 1 8.0 16.1 0.00 0.00 0.00 33 1015.9
20260504210340 23 289 9.7 20.9 0.00 0.00 0.00 33 1016.0
20260504205837 22 253 9.7 17.7 0.00 0.00 0.00 34 1016.3
20260504205335 22 303 16.1 25.7 0.00 0.00 0.00 34 1016.0
20260504204832 22 311 6.4 19.3 0.00 0.00 0.00 33 1016.2
20260504204331 23 281 12.9 16.1 0.00 0.00 0.00 33 1016.3
20260504203830 23 280 3.2 8.0 0.00 0.00 0.00 32 1016.3
20260504203326 22 287 6.4 17.7 0.00 0.00 0.00 34 1016.2
20260504202822 23 336 11.3 16.1 0.00 0.00 0.00 34 1016.5
20260504202320 23 87 1.6 8.0 0.00 0.00 0.00 32 1016.3
20260504201816 23 180 3.2 6.4 0.00 0.00 0.00 33 1016.7
20260504201313 22 97 6.4 9.7 0.00 0.00 0.00 34 1016.7
20260504200811 22 5 8.0 16.1 0.00 0.00 0.00 34 1016.6